Regional Weather Roundup
Issued by NWS

Home | Current Version | Previous Version | Text Only | Print | Product List | Glossary On
Versions: 1 2 3 4 5 6 7 8 9 10 11 12 13 14 15 16 17 18 19 20 21 22 23 24 25 26 27 28 29 30 31 32 33 34 35 36 37 38 39 40 41 42 43 44 45 46 47 48 49 50
000
ASUS43 KBIS 031110
RWRND

NORTH DAKOTA REGIONAL WEATHER ROUNDUP
NATIONAL WEATHER SERVICE BISMARCK ND
600 AM CDT MON AUG 03 2015

NOTE: "FAIR" INDICATES FEW OR NO CLOUDS BELOW 12,000 FEET WITH NO
SIGNIFICANT WEATHER AND/OR OBSTRUCTIONS TO VISIBILITY.


NDZ001>003-009>011-017-031200-
NORTHWEST NORTH DAKOTA

CITY           SKY/WX    TMP DP  RH WIND       PRES   REMARKS
WILLISTON      CLEAR     50  47  89 N3        30.03S
MINOT          CLEAR     53  48  83 SW3       30.00R
MINOT AFB      CLEAR     50  49  99 W5        29.99S
$$

NDZ018>021-031>035-040>046-031200-
SOUTHWEST NORTH DAKOTA

CITY           SKY/WX    TMP DP  RH WIND       PRES   REMARKS
BISMARCK       CLEAR     52  50  93 W5        30.01R
DICKINSON      CLEAR     54  48  80 N7        30.03S
GARRISON         N/A     52  49  89 N7        30.01R
HETTINGER ARPT CLEAR     48  44  86 NW3       30.06R
$$

NDZ004>008-012>016-024-026-027-054-031200-
NORTHEAST NORTH DAKOTA

CITY           SKY/WX    TMP DP  RH WIND       PRES   REMARKS
GRAND FORKS    CLEAR     49  46  90 W6        29.90R
GRND FRKS AFB  CLEAR     51  48  89 W8        29.91R
DEVILS LAKE    CLEAR     54  45  71 NW8       29.94S
$$

NDZ022-023-025-028>030-036>039-047>053-031200-
SOUTHEAST NORTH DAKOTA

CITY           SKY/WX    TMP DP  RH WIND       PRES   REMARKS
FARGO          CLEAR     51  46  83 W3        29.92R
JAMESTOWN      CLEAR     53  49  86 NW5       29.96R
$$



USA.gov is the U.S. government's official web portal to all federal, state and local government web resources and services.